Regional Weather Roundup
Issued by NWS Kansas City/Pleasant Hill, MO

Home | Current Version | Previous Version | Text Only | Print | Product List | Glossary On
Versions: 1 2 3 4 5 6 7 8 9 10 11 12 13 14 15 16 17 18 19 20 21 22 23 24 25 26 27 28 29 30 31 32 33 34 35 36 37 38 39 40 41 42 43 44 45 46 47 48 49 50
225
ASUS43 KEAX 111310
RWREAX

WEATHER ROUNDUP FOR EASTERN KANSAS AND NORTHWEST MISSOURI
NATIONAL WEATHER SERVICE KANSAS CITY/PLEASANT HILL MO
700 AM CST THU FEB 11 2016

KSZ040-057-103>105-MOZ028-029-037-043-111400-
...KANSAS CITY METROPOLITAN AREA...

CITY           SKY/WX    TMP DP  RH WIND       PRES   REMARKS
K.C. INTL      CLOUDY    20  17  88 NE7       30.25R WCI  11
K.C. DOWNTOWN  CLOUDY    23  18  81 NE7       30.26R WCI  15
LEES SUMMIT    PTCLDY    21  17  84 NE12      30.24R WCI   9
OLATHE - IXD   PTCLDY    22  18  85 NE8       30.24R WCI  12
OLATHE - OJC   PTCLDY    21  17  84 NE9       30.23R WCI  11
LAWRENCE       PTCLDY    21  17  84 NE8       30.26R WCI  11

$$

MOZ001>008-011>017-020>025-030>033-038>040-044>046-053-054-111400-
...NORTHERN AND CENTRAL MISSOURI...

CITY           SKY/WX    TMP DP  RH WIND       PRES   REMARKS
ST. JOSEPH     PTCLDY    21  17  84 NE9       30.29R WCI  11
MOSBY            N/A     21  19  93 CALM      30.27R
WARRENSBURG    CLEAR     21  19  93 N8        30.25R WCI  12
WHITEMAN AFB   PTCLDY    20  17  89 NE7       30.23R WCI  11
CLINTON          N/A     25  21  86 NE6       30.22R WCI  18
SEDALIA        CLEAR     22  17  81 NE7       30.24R WCI  13
WARSAW         NOT AVBL
CHILLICOTHE      N/A     22  15  75 NE10      30.31R WCI  11
KIRKSVILLE     CLOUDY    13   7  77 NE10      30.29R WCI   0

$$

MOZ041-047>049-056>058-063>065-088>090-097-111400-
...EASTERN AND SOUTHERN MISSOURI...

CITY           SKY/WX    TMP DP  RH WIND       PRES   REMARKS
ST. LOUIS INTL CLOUDY    23  15  71 NE7       30.29R WCI  15
SPIRIT OF STL  CLOUDY    22  16  78 NE6       30.28R WCI  14
COLUMBIA       CLOUDY    21  16  81 NE12      30.24R WCI   9
JEFFERSON CITY CLOUDY    24  18  77 NE3       30.25S
ROLLA          CLEAR     21  17  84 NE8       30.19R WCI  11
OSAGE BEACH    CLOUDY    19  12  73 NE5       30.21R WCI  13
SPRINGFIELD    CLEAR     24  16  71 NE10      30.15R WCI  14
BRANSON        PTCLDY    25  14  63 CALM      30.12R
JOPLIN         CLEAR     26  20  77 NE9       30.17R WCI  17
WEST PLAINS    CLOUDY    21  12  68 NE10      30.15R WCI  10

$$

IAZ060-094-KSZ022-034>040-054-083-096-NEZ052-066-093-111400-
...KANSAS...SOUTHEAST NEBRASKA AND IOWA...

CITY           SKY/WX    TMP DP  RH WIND       PRES   REMARKS
TOPEKA         CLOUDY    22  18  85 N6        30.27R WCI  14
MANHATTAN      CLOUDY    26  23  88 NE8       30.27R WCI  18
EMPORIA        CLOUDY    22  19  89 N8        30.22R WCI  12
CHANUTE        CLEAR     25  21  85 N8        30.20R WCI  16
WICHITA        PTCLDY    30  23  75 N15       30.19R WCI  19
OMAHA          CLOUDY    14   2  58 CALM      30.32R
LINCOLN        CLOUDY    19  14  81 NE7       30.29R WCI  10
FALLS CITY     CLOUDY    21  17  84 NE7       30.29R WCI  12
LAMONI         CLOUDY    10   5  80 N9        30.30R WCI  -3
DES MOINES     PTCLDY     7  -2  66 NE9       30.32R WCI  -7

$$





USA.gov is the U.S. government's official web portal to all federal, state and local government web resources and services.